Regional Weather Roundup
Issued by NWS

Home | Current Version | Previous Version | Text Only | Print | Product List | Glossary On
Versions: 1 2 3 4 5 6 7 8 9 10 11 12 13 14 15 16 17 18 19 20 21 22 23 24 25 26 27
000
ASUS45 KTFX 241310
RWRMT
MONTANA REGIONAL WEATHER ROUNDUP
NATIONAL WEATHER SERVICE GREAT FALLS MT
700 AM MDT SUN JUL 24 2016

NOTE: "FAIR" INDICATES FEW OR NO CLOUDS BELOW 12000 FEET WITH NO
SIGNIFICANT WEATHER AND/OR OBSTRUCTIONS TO VISIBILITY.

MTZ001>007-043-241400-
WEST OF THE DIVIDE

CITY           SKY/WX    TMP DP  RH WIND       PRES   REMARKS
KALISPELL      CLEAR     46  45  96 CALM      30.15R
MISSOULA       CLEAR     51  43  74 CALM      30.19R
BUTTE          CLEAR     42  33  70 CALM      30.25S
MULLAN PASS    CLEAR     51  39  63 CALM      30.24S
ANACONDA         N/A     48  37  66 SW5       30.23R
DEER LODGE       N/A     45  37  76 CALM      30.25R
EUREKA           N/A     48  45  87 CALM      30.15R
HAMILTON         N/A     50  39  66 CALM      30.19R
LIBBY            N/A     45  41  87 CALM      30.17R
PLAINS           N/A     46  40  79 CALM      30.16R
RONAN            N/A     45  42  89 CALM      30.19R
$$

MTZ008-052>055-241400-
SOUTHWEST MONTANA

CITY           SKY/WX    TMP DP  RH WIND       PRES   REMARKS
BOZEMAN        CLEAR     49  42  77 SE5       30.20R
DILLON         CLEAR     46  38  73 S6        30.22R
W YELLOWSTONE  CLOUDY    34  32  93 CALM      30.31S
ENNIS          CLEAR     45  37  76 N5        30.28R
THREE FORKS      N/A     45  42  89 CALM      30.17R
TWIN BRIDGES     N/A     49  34  56 CALM      30.18R
$$

MTZ009-010-012-014-046-048-049-054-241400-
EAST SLOPES AND CENTRAL MONTANA

CITY           SKY/WX    TMP DP  RH WIND       PRES   REMARKS
CUT BANK       CLEAR     54  42  64 W9        30.11R
GREAT FALLS    CLEAR     55  41  59 S8        30.13R
MALMSTROM AFB  CLEAR     53  44  71 S3        30.12R
HELENA         CLEAR     57  39  51 CALM      30.19R
CHOTEAU          N/A     55  39  54 MISG      30.14S
$$

MTZ011-013-016-021-045-047-050-051-241400-
NORTH CENTRAL MONTANA

CITY           SKY/WX    TMP DP  RH WIND       PRES   REMARKS
HAVRE          SUNNY     56  51  84 MISG      30.06R
LEWISTOWN      SUNNY     53  45  74 SE6       30.15R
N BAR RANCH      N/A     57  43  58 VRB3      30.17S
CHINOOK          N/A     55  52  88 CALM      30.04S
$$

MTZ017>020-022>027-061-062-241400-
NORTHEAST MONTANA

CITY           SKY/WX    TMP DP  RH WIND       PRES   REMARKS
GLASGOW        SUNNY     58  54  86 CALM      30.04R
JORDAN           N/A     54  49  83 CALM      30.07R
SIDNEY         SUNNY     58  54  86 SW6       30.06R
WOLF POINT     MOSUNNY   56  52  86 S3        30.06R
PLENTYWOOD       N/A     55  54  94 W3        30.04R
POPLAR           N/A     57  52  82 CALM      30.06R
SCOBEY           N/A     62  49  62 CALM      30.03S
$$

MTZ028>42-056>058-241400-
SOUTHCENTRAL AND SOUTHEAST MONTANA

CITY           SKY/WX    TMP DP  RH WIND       PRES   REMARKS
BAKER          SUNNY     59  51  75 CALM      30.10S
BILLINGS       MOSUNNY   59  47  64 SW12      30.12R
LIVINGSTON     CLEAR     50  38  63 NW5       30.19R
MILES CITY     SUNNY     63  48  58 S3        30.07S
EKALAKA          N/A     60  48  64 SE3       30.09R
FORSYTH          N/A     64  52  63 CALM      30.07R
LAUREL           N/A     55  48  77 CALM      30.10R
ROUNDUP          N/A     54  44  68 S8        30.02R
$$

REGIONAL REPORTS...DAKOTAS

CITY           SKY/WX    TMP DP  RH WIND       PRES   REMARKS
WILLISTON      SUNNY     60  53  77 SW7       30.03R
MINOT          SUNNY     67  56  67 W12       29.97R
DICKINSON      SUNNY     59  53  80 W7        30.05S
BEACH            N/A     57  54  88 CALM      30.11S
CROSBY           N/A     61  57  88 W10       30.03R
WATFORD CITY     N/A    N/A N/A N/A MISG        N/A
BISMARCK       MOSUNNY   64  56  75 W8        30.01R
GRAND FORKS    MOSUNNY   67  60  78 W9        29.84R
FARGO          SUNNY     67  61  81 W10       29.88R
BUFFALO SD       N/A     64  51  62 SW5       30.06R
RAPID CITY     CLOUDY    62  56  80 CALM      30.13R
$$

REGIONAL REPORTS...WYOMING/IDAHO/WASHINGTON

CITY           SKY/WX    TMP DP  RH WIND       PRES   REMARKS
GILLETTE       CLOUDY    62  43  49 S7        30.15R
SHERIDAN       CLOUDY    58  45  62 W7        30.12R
BUFFALO WY     SUNNY     62  38  40 SE5       30.19R
CODY           CLEAR     55  36  47 CALM      30.19R
YELLOWSTONE LA   N/A     36  33  89 CALM      30.37R
IDAHO FALLS    CLOUDY    43  38  82 CALM      30.18R
SALMON         CLEAR     46  37  71 CALM      30.19R
BOISE          CLEAR     58  40  51 CALM      30.07R
SPOKANE        CLEAR     57  48  72 E3        30.13R
$$

REGIONAL REPORTS...ALBERTA

CITY           SKY/WX    TMP DP  RH WIND       PRES   REMARKS
EDMONTON       SUNNY     57  52  82 SW7       29.95S
CALGARY        PTCLDY    55  45  67 VRB2      30.06S
LETHBRIDGE     CLEAR     55  48  76 SW9       30.06R
MEDICINE HAT   MOSUNNY   55  52  88 W9        30.01R
WATERTON GATE    N/A     55  43  62 S12G17      N/A
MILK RIVER       N/A     54  45  71 W10         N/A
ONEFOUR          N/A     55  43  62 W5          N/A
$$

REGIONAL REPORTS...SASKATCHEWAN

CITY           SKY/WX    TMP DP  RH WIND       PRES   REMARKS
SWIFT CURRENT  CLOUDY    57  55  94 SW7       30.03R
REGINA         MOSUNNY   59  54  82 W10G17    29.97S
SASKATOON      MOSUNNY   57  54  88 W5        29.97R
ROCKGLEN         N/A     57  54  88 W9          N/A
$$




USA.gov is the U.S. government's official web portal to all federal, state and local government web resources and services.